• In Italy
  • List of Countries
  • For 7 days
  • Water Temperature
  • Satellite Maps
  • Weather Map
  • Weather Widgets
  • user-avatar
    Login

    Hourly Weather Sumgayit

    Today, 27 July, Thursday

    Time Temperature Precipitation Wind Pressure Humidity
    00:00 +28°C° 0 mm 5 mps 735 mmHg 51%
    01:00 +28°C° 0 mm 5 mps 735 mmHg 51%
    02:00 +28°C° 0 mm 4 mps 735 mmHg 52%
    03:00 +28°C° 0 mm 4 mps 735 mmHg 52%
    04:00 +28°C° 0 mm 4 mps 735 mmHg 51%
    05:00 +28°C° 0 mm 4 mps 735 mmHg 50%
    06:00 +28°C° 0 mm 4 mps 735 mmHg 49%
    07:00 +30°C° 0 mm 4 mps 736 mmHg 44%
    08:00 +32°C° 0 mm 4 mps 736 mmHg 40%
    09:00 +33°C° 0 mm 4 mps 736 mmHg 36%
    10:00 +34°C° 0 mm 4 mps 736 mmHg 34%
    11:00 +35°C° 0 mm 4 mps 736 mmHg 32%
    12:00 +36°C° 0 mm 4 mps 736 mmHg 29%
    13:00 +36°C° 0 mm 4 mps 736 mmHg 29%
    14:00 +36°C° 0 mm 4 mps 735 mmHg 29%
    15:00 +37°C° 0 mm 5 mps 735 mmHg 29%
    16:00 +36°C° 0 mm 5 mps 735 mmHg 30%
    17:00 +35°C° 0 mm 4 mps 735 mmHg 31%
    18:00 +35°C° 0 mm 4 mps 735 mmHg 33%
    19:00 +34°C° 0 mm 4 mps 735 mmHg 35%
    20:00 +33°C° 0 mm 3 mps 736 mmHg 36%
    21:00 +31°C° 0 mm 3 mps 736 mmHg 38%
    22:00 +31°C° 0 mm 2 mps 736 mmHg 39%
    23:00 +30°C° 0 mm 2 mps 736 mmHg 40%

    Tomorrow, 28 July, Friday

    Time Temperature Precipitation Wind Pressure Humidity
    00:00 +30°C° 0 mm 2 mps 736 mmHg 41%
    01:00 +30°C° 0 mm 2 mps 735 mmHg 42%
    02:00 +29°C° 0 mm 1 mps 735 mmHg 42%
    03:00 +29°C° 0 mm 1 mps 735 mmHg 43%
    04:00 +29°C° 0 mm 1 mps 735 mmHg 41%
    05:00 +30°C° 0 mm 1 mps 735 mmHg 40%
    06:00 +30°C° 0 mm 1 mps 736 mmHg 38%
    07:00 +32°C° 0 mm 2 mps 736 mmHg 35%
    08:00 +34°C° 0 mm 2 mps 736 mmHg 32%
    09:00 +35°C° 0 mm 2 mps 736 mmHg 29%
    10:00 +37°C° 0 mm 3 mps 736 mmHg 27%
    11:00 +38°C° 0 mm 3 mps 735 mmHg 25%
    12:00 +40°C° 0 mm 4 mps 735 mmHg 23%
    13:00 +40°C° 0 mm 5 mps 735 mmHg 23%
    14:00 +40°C° 0 mm 5 mps 735 mmHg 24%
    15:00 +40°C° 0 mm 6 mps 734 mmHg 24%
    16:00 +39°C° 0 mm 6 mps 734 mmHg 26%
    17:00 +38°C° 0 mm 6 mps 734 mmHg 29%
    18:00 +36°C° 0 mm 6 mps 734 mmHg 31%
    19:00 +35°C° 0 mm 5 mps 734 mmHg 35%
    20:00 +34°C° 0 mm 4 mps 735 mmHg 39%
    21:00 +31°C° 0 mm 3 mps 735 mmHg 43%
    22:00 +31°C° 0 mm 3 mps 735 mmHg 45%
    23:00 +31°C° 0 mm 3 mps 735 mmHg 47%

    Day after tomorrow, 29 July, Saturday

    Time Temperature Precipitation Wind Pressure Humidity
    00:00 +30°C° 0 mm 2 mps 734 mmHg 49%
    01:00 +30°C° 0 mm 2 mps 734 mmHg 49%
    02:00 +30°C° 0 mm 2 mps 734 mmHg 49%
    03:00 +30°C° 0 mm 2 mps 734 mmHg 49%
    04:00 +30°C° 0 mm 2 mps 734 mmHg 47%
    05:00 +30°C° 0 mm 2 mps 734 mmHg 46%
    06:00 +30°C° 0 mm 2 mps 735 mmHg 44%
    07:00 +33°C° 0 mm 3 mps 735 mmHg 41%
    08:00 +34°C° 0 mm 4 mps 735 mmHg 38%
    09:00 +35°C° 0 mm 4 mps 735 mmHg 35%
    10:00 +36°C° 0 mm 5 mps 735 mmHg 33%
    11:00 +37°C° 0 mm 5 mps 735 mmHg 32%
    12:00 +39°C° 0 mm 5 mps 734 mmHg 30%
    13:00 +39°C° 0 mm 5 mps 734 mmHg 30%
    14:00 +40°C° 0 mm 6 mps 734 mmHg 30%
    15:00 +40°C° 0 mm 6 mps 734 mmHg 30%
    16:00 +39°C° 0 mm 5 mps 734 mmHg 31%
    17:00 +37°C° 0 mm 5 mps 734 mmHg 32%
    18:00 +36°C° 0 mm 4 mps 734 mmHg 33%
    19:00 +35°C° 0 mm 3 mps 734 mmHg 36%
    20:00 +34°C° 0 mm 2 mps 735 mmHg 38%
    21:00 +32°C° 0 mm 1 mps 735 mmHg 41%
    22:00 +32°C° 0 mm 2 mps 735 mmHg 42%
    23:00 +33°C° 0 mm 3 mps 735 mmHg 43%

    30 July, Sunday

    Time Temperature Precipitation Wind Pressure Humidity
    00:00 +31°C° 0 mm 3 mps 735 mmHg 45%
    01:00 +32°C° 0 mm 4 mps 735 mmHg 45%
    02:00 +32°C° 0 mm 5 mps 736 mmHg 45%
    03:00 +32°C° 0 mm 6 mps 736 mmHg 46%
    04:00 +32°C° 0 mm 7 mps 736 mmHg 47%
    05:00 +32°C° 0 mm 8 mps 736 mmHg 49%
    06:00 +32°C° 0 mm 9 mps 737 mmHg 50%
    07:00 +33°C° 0 mm 9 mps 737 mmHg 48%
    08:00 +34°C° 0 mm 9 mps 737 mmHg 46%
    09:00 +35°C° 0 mm 9 mps 738 mmHg 44%
    10:00 +35°C° 0 mm 9 mps 738 mmHg 43%
    11:00 +37°C° 0 mm 10 mps 737 mmHg 41%
    12:00 +37°C° 0 mm 10 mps 737 mmHg 40%
    13:00 +37°C° 0 mm 10 mps 737 mmHg 40%
    14:00 +37°C° 0 mm 11 mps 737 mmHg 41%
    15:00 +37°C° 0 mm 11 mps 737 mmHg 41%
    16:00 +36°C° 0 mm 11 mps 737 mmHg 42%
    17:00 +36°C° 0 mm 11 mps 737 mmHg 43%
    18:00 +34°C° 0 mm 11 mps 737 mmHg 45%
    19:00 +33°C° 0 mm 11 mps 738 mmHg 45%
    20:00 +33°C° 0 mm 10 mps 738 mmHg 46%
    21:00 +32°C° 0 mm 10 mps 738 mmHg 47%
    22:00 +32°C° 0 mm 10 mps 738 mmHg 46%
    23:00 +32°C° 0 mm 9 mps 738 mmHg 45%

    31 July, Monday

    Time Temperature Precipitation Wind Pressure Humidity
    00:00 +32°C° 0 mm 9 mps 738 mmHg 44%
    01:00 +32°C° 0 mm 9 mps 738 mmHg 44%
    02:00 +32°C° 0 mm 8 mps 738 mmHg 45%
    03:00 +31°C° 0 mm 8 mps 738 mmHg 45%
    04:00 +31°C° 0 mm 8 mps 739 mmHg 46%
    05:00 +30°C° 0 mm 7 mps 739 mmHg 46%
    06:00 +30°C° 0 mm 7 mps 739 mmHg 47%
    07:00 +32°C° 0 mm 8 mps 740 mmHg 44%
    08:00 +33°C° 0 mm 8 mps 740 mmHg 42%
    09:00 +34°C° 0 mm 9 mps 740 mmHg 39%
    10:00 +35°C° 0 mm 9 mps 740 mmHg 39%
    11:00 +35°C° 0 mm 9 mps 740 mmHg 38%
    12:00 +37°C° 0 mm 9 mps 740 mmHg 37%
    13:00 +37°C° 0 mm 9 mps 740 mmHg 38%
    14:00 +37°C° 0 mm 9 mps 740 mmHg 39%
    15:00 +36°C° 0 mm 10 mps 739 mmHg 39%
    16:00 +35°C° 0 mm 9 mps 740 mmHg 42%
    17:00 +34°C° 0 mm 9 mps 740 mmHg 44%
    18:00 +33°C° 0 mm 9 mps 740 mmHg 46%
    19:00 +32°C° 0 mm 9 mps 740 mmHg 47%
    20:00 +32°C° 0 mm 8 mps 740 mmHg 49%
    21:00 +31°C° 0 mm 8 mps 741 mmHg 50%
    22:00 +30°C° 0 mm 7 mps 741 mmHg 50%
    23:00 +30°C° 0 mm 6 mps 741 mmHg 51%

    1 August, Tuesday

    Time Temperature Precipitation Wind Pressure Humidity
    00:00 +30°C° 0 mm 6 mps 741 mmHg 51%
    01:00 +30°C° 0 mm 5 mps 741 mmHg 52%
    02:00 +29°C° 0 mm 5 mps 741 mmHg 53%
    03:00 +29°C° 0 mm 4 mps 741 mmHg 53%
    04:00 +29°C° 0 mm 4 mps 741 mmHg 53%
    05:00 +29°C° 0 mm 4 mps 741 mmHg 52%
    06:00 +29°C° 0 mm 4 mps 741 mmHg 52%
    07:00 +32°C° 0 mm 4 mps 741 mmHg 48%
    08:00 +33°C° 0 mm 5 mps 742 mmHg 44%
    09:00 +34°C° 0 mm 5 mps 742 mmHg 40%
    10:00 +35°C° 0 mm 5 mps 741 mmHg 38%
    11:00 +35°C° 0 mm 6 mps 741 mmHg 37%
    12:00 +36°C° 0 mm 6 mps 741 mmHg 35%
    13:00 +36°C° 0 mm 7 mps 741 mmHg 35%
    14:00 +36°C° 0 mm 7 mps 741 mmHg 36%
    15:00 +36°C° 0 mm 7 mps 740 mmHg 36%
    16:00 +35°C° 0 mm 7 mps 740 mmHg 39%
    17:00 +34°C° 0 mm 7 mps 740 mmHg 42%
    18:00 +33°C° 0 mm 7 mps 740 mmHg 45%
    19:00 +32°C° 0 mm 7 mps 741 mmHg 49%
    20:00 +30°C° 0 mm 7 mps 741 mmHg 53%
    21:00 +29°C° 0 mm 6 mps 741 mmHg 57%
    22:00 +29°C° 0 mm 6 mps 741 mmHg 58%
    23:00 +29°C° 0 mm 6 mps 741 mmHg 60%
    Show more